Year,Month,Day,Hour,Minute,Value (Times are PST for temperature in C)
2007,07,12,00,00,19.60
2007,07,12,00,01,19.50
2007,07,12,00,02,19.50
2007,07,12,00,03,19.50
2007,07,12,00,04,19.50
2007,07,12,00,05,19.50
2007,07,12,00,06,19.50
2007,07,12,00,07,19.50
2007,07,12,00,08,19.50
2007,07,12,00,09,19.50
2007,07,12,00,10,19.50
2007,07,12,00,11,19.40
2007,07,12,00,12,19.40
2007,07,12,00,13,19.40
2007,07,12,00,14,19.40
2007,07,12,00,15,19.40
2007,07,12,00,16,19.40
2007,07,12,00,17,19.40
2007,07,12,00,18,19.40
2007,07,12,00,19,19.40
2007,07,12,00,20,19.40
2007,07,12,00,21,19.40
2007,07,12,00,22,19.30
2007,07,12,00,23,19.30
2007,07,12,00,24,19.30
2007,07,12,00,25,19.30
2007,07,12,00,26,19.30
2007,07,12,00,27,19.30
2007,07,12,00,28,19.20
2007,07,12,00,29,19.20
2007,07,12,00,30,19.20
2007,07,12,00,31,19.20
2007,07,12,00,32,19.20
2007,07,12,00,33,19.20
2007,07,12,00,34,19.10
2007,07,12,00,35,19.10
2007,07,12,00,36,19.10
2007,07,12,00,37,19.10
2007,07,12,00,38,19.10
2007,07,12,00,39,19.10
2007,07,12,00,40,19.10
2007,07,12,00,41,19.10
2007,07,12,00,42,19.10
2007,07,12,00,43,19.10
2007,07,12,00,44,19.10
2007,07,12,00,45,19.10
2007,07,12,00,46,19.10
2007,07,12,00,47,19.10
2007,07,12,00,48,19.10
2007,07,12,00,49,19.10
2007,07,12,00,50,19.10
2007,07,12,00,51,19.10
2007,07,12,00,52,19.10
2007,07,12,00,53,19.10
2007,07,12,00,54,19.10
2007,07,12,00,55,19.00
2007,07,12,00,56,18.90
2007,07,12,00,57,18.90
2007,07,12,00,58,18.90
2007,07,12,00,59,18.80
2007,07,12,01,00,18.70
2007,07,12,01,01,18.60
2007,07,12,01,02,18.60
2007,07,12,01,03,18.50
2007,07,12,01,04,18.50
2007,07,12,01,05,18.40
2007,07,12,01,06,18.40
2007,07,12,01,07,18.30
2007,07,12,01,08,18.30
2007,07,12,01,09,18.30
2007,07,12,01,10,18.30
2007,07,12,01,11,18.20
2007,07,12,01,12,18.20
2007,07,12,01,13,18.20
2007,07,12,01,14,18.20
2007,07,12,01,15,18.20
2007,07,12,01,16,18.20
2007,07,12,01,17,18.30
2007,07,12,01,18,18.30
2007,07,12,01,19,18.40
2007,07,12,01,20,18.40
2007,07,12,01,21,18.40
2007,07,12,01,22,18.40
2007,07,12,01,23,18.40
2007,07,12,01,24,18.40
2007,07,12,01,25,18.40
2007,07,12,01,26,18.40
2007,07,12,01,27,18.30
2007,07,12,01,28,18.30
2007,07,12,01,29,18.30
2007,07,12,01,30,18.30
2007,07,12,01,31,18.30
2007,07,12,01,32,18.30
2007,07,12,01,33,18.30
2007,07,12,01,34,18.30
2007,07,12,01,35,18.30
2007,07,12,01,36,18.30
2007,07,12,01,37,18.20
2007,07,12,01,38,18.20
2007,07,12,01,39,18.20
2007,07,12,01,40,18.20
2007,07,12,01,41,18.20
2007,07,12,01,42,18.20
2007,07,12,01,43,18.20
2007,07,12,01,44,18.20
2007,07,12,01,45,18.20
2007,07,12,01,46,18.20
2007,07,12,01,47,18.20
2007,07,12,01,48,18.20
2007,07,12,01,49,18.20
2007,07,12,01,50,18.20
2007,07,12,01,51,18.20
2007,07,12,01,52,18.20
2007,07,12,01,53,18.20
2007,07,12,01,54,18.10
2007,07,12,01,55,18.10
2007,07,12,01,56,18.10
2007,07,12,01,57,18.00
2007,07,12,01,58,17.90
2007,07,12,01,59,17.90
2007,07,12,02,00,17.90
2007,07,12,02,01,17.80
2007,07,12,02,02,17.80
2007,07,12,02,03,17.70
2007,07,12,02,04,17.70
2007,07,12,02,05,17.60
2007,07,12,02,06,17.50
2007,07,12,02,07,17.50
2007,07,12,02,08,17.50
2007,07,12,02,09,17.40
2007,07,12,02,10,17.40
2007,07,12,02,11,17.40
2007,07,12,02,12,17.30
2007,07,12,02,13,17.30
2007,07,12,02,14,17.30
2007,07,12,02,15,17.30
2007,07,12,02,16,17.30
2007,07,12,02,17,17.30
2007,07,12,02,18,17.30
2007,07,12,02,19,17.30
2007,07,12,02,20,17.30
2007,07,12,02,21,17.30
2007,07,12,02,22,17.30
2007,07,12,02,23,17.30
2007,07,12,02,24,17.30
2007,07,12,02,25,17.30
2007,07,12,02,26,17.30
2007,07,12,02,27,17.30
2007,07,12,02,28,17.30
2007,07,12,02,29,17.30
2007,07,12,02,30,17.30
2007,07,12,02,31,17.30
2007,07,12,02,32,17.20
2007,07,12,02,33,17.20
2007,07,12,02,34,17.20
2007,07,12,02,35,17.10
2007,07,12,02,36,17.00
2007,07,12,02,37,17.00
2007,07,12,02,38,16.90
2007,07,12,02,39,16.90
2007,07,12,02,40,16.80
2007,07,12,02,41,16.70
2007,07,12,02,42,16.70
2007,07,12,02,43,16.70
2007,07,12,02,44,16.60
2007,07,12,02,45,16.60
2007,07,12,02,46,16.60
2007,07,12,02,47,16.60
2007,07,12,02,48,16.60
2007,07,12,02,49,16.60
2007,07,12,02,50,16.60
2007,07,12,02,51,16.60
2007,07,12,02,52,16.70
2007,07,12,02,53,16.70
2007,07,12,02,54,16.70
2007,07,12,02,55,16.70
2007,07,12,02,56,16.70
2007,07,12,02,57,16.70
2007,07,12,02,58,16.70
2007,07,12,02,59,16.70
2007,07,12,03,00,16.70
2007,07,12,03,01,16.70
2007,07,12,03,02,16.70
2007,07,12,03,03,16.70
2007,07,12,03,04,16.70
2007,07,12,03,05,16.70
2007,07,12,03,06,16.70
2007,07,12,03,07,16.70
2007,07,12,03,08,16.70
2007,07,12,03,09,16.70
2007,07,12,03,10,16.70
2007,07,12,03,11,16.70
2007,07,12,03,12,16.70
2007,07,12,03,13,16.70
2007,07,12,03,14,16.70
2007,07,12,03,15,16.70
2007,07,12,03,16,16.70
2007,07,12,03,17,16.70
2007,07,12,03,18,16.70
2007,07,12,03,19,16.70
2007,07,12,03,20,16.70
2007,07,12,03,21,16.70
2007,07,12,03,22,16.70
2007,07,12,03,23,16.70
2007,07,12,03,24,16.70
2007,07,12,03,25,16.70
2007,07,12,03,26,16.70
2007,07,12,03,27,16.70
2007,07,12,03,28,16.70
2007,07,12,03,29,16.70
2007,07,12,03,30,16.70
2007,07,12,03,31,16.70
2007,07,12,03,32,16.60
2007,07,12,03,33,16.60
2007,07,12,03,34,16.60
2007,07,12,03,35,16.60
2007,07,12,03,36,16.50
2007,07,12,03,37,16.40
2007,07,12,03,38,16.40
2007,07,12,03,39,16.40
2007,07,12,03,40,16.40
2007,07,12,03,41,16.40
2007,07,12,03,42,16.30
2007,07,12,03,43,16.30
2007,07,12,03,44,16.30
2007,07,12,03,45,16.30
2007,07,12,03,46,16.20
2007,07,12,03,47,16.20
2007,07,12,03,48,16.20
2007,07,12,03,49,16.20
2007,07,12,03,50,16.10
2007,07,12,03,51,16.10
2007,07,12,03,52,16.10
2007,07,12,03,53,16.10
2007,07,12,03,54,16.10
2007,07,12,03,55,16.10
2007,07,12,03,56,16.00
2007,07,12,03,57,15.90
2007,07,12,03,58,15.90
2007,07,12,03,59,15.80
2007,07,12,04,00,15.80
2007,07,12,04,01,15.80
2007,07,12,04,02,15.80
2007,07,12,04,03,15.80
2007,07,12,04,04,15.80
2007,07,12,04,05,15.80
2007,07,12,04,06,15.80
2007,07,12,04,07,15.80
2007,07,12,04,08,15.80
2007,07,12,04,09,15.80
2007,07,12,04,10,15.80
2007,07,12,04,11,15.80
2007,07,12,04,12,15.80
2007,07,12,04,13,15.80
2007,07,12,04,14,15.80
2007,07,12,04,15,15.80
2007,07,12,04,16,15.80
2007,07,12,04,17,15.80
2007,07,12,04,18,15.80
2007,07,12,04,19,15.80
2007,07,12,04,20,15.80
2007,07,12,04,21,15.80
2007,07,12,04,22,15.80
2007,07,12,04,23,15.80
2007,07,12,04,24,15.90
2007,07,12,04,25,15.90
2007,07,12,04,26,15.90
2007,07,12,04,27,15.90
2007,07,12,04,28,15.80
2007,07,12,04,29,15.80
2007,07,12,04,30,15.80
2007,07,12,04,31,15.80
2007,07,12,04,32,15.80
2007,07,12,04,33,15.80
2007,07,12,04,34,15.80
2007,07,12,04,35,15.80
2007,07,12,04,36,15.70
2007,07,12,04,37,15.70
2007,07,12,04,38,15.70
2007,07,12,04,39,15.70
2007,07,12,04,40,15.60
2007,07,12,04,41,15.60
2007,07,12,04,42,15.60
2007,07,12,04,43,15.60
2007,07,12,04,44,15.60
2007,07,12,04,45,15.60
2007,07,12,04,46,15.60
2007,07,12,04,47,15.60
2007,07,12,04,48,15.60
2007,07,12,04,49,15.60
2007,07,12,04,50,15.60
2007,07,12,04,51,15.60
2007,07,12,04,52,15.60
2007,07,12,04,53,15.50
2007,07,12,04,54,15.50
2007,07,12,04,55,15.50
2007,07,12,04,56,15.50
2007,07,12,04,57,15.50
2007,07,12,04,58,15.50
2007,07,12,04,59,15.40
2007,07,12,05,00,15.40
2007,07,12,05,01,15.40
2007,07,12,05,02,15.30
2007,07,12,05,03,15.30
2007,07,12,05,04,15.30
2007,07,12,05,05,15.30
2007,07,12,05,06,15.30
2007,07,12,05,07,15.30
2007,07,12,05,08,15.30
2007,07,12,05,09,15.30
2007,07,12,05,10,15.20
2007,07,12,05,11,15.20
2007,07,12,05,12,15.20
2007,07,12,05,13,15.20
2007,07,12,05,14,15.20
2007,07,12,05,15,15.10
2007,07,12,05,16,15.10
2007,07,12,05,17,15.10
2007,07,12,05,18,15.10
2007,07,12,05,19,15.10
2007,07,12,05,20,15.10
2007,07,12,05,21,15.00
2007,07,12,05,22,15.00
2007,07,12,05,23,15.00
2007,07,12,05,24,15.00
2007,07,12,05,25,15.00
2007,07,12,05,26,15.00
2007,07,12,05,27,15.00
2007,07,12,05,28,15.00
2007,07,12,05,29,15.00
2007,07,12,05,30,15.00
2007,07,12,05,31,15.00
2007,07,12,05,32,15.00
2007,07,12,05,33,14.90
2007,07,12,05,34,14.90
2007,07,12,05,35,14.90
2007,07,12,05,36,14.90
2007,07,12,05,37,14.90
2007,07,12,05,38,14.90
2007,07,12,05,39,14.90
2007,07,12,05,40,14.90
2007,07,12,05,41,14.80
2007,07,12,05,42,14.80
2007,07,12,05,43,14.80
2007,07,12,05,44,14.80
2007,07,12,05,45,14.80
2007,07,12,05,46,14.80
2007,07,12,05,47,14.80
2007,07,12,05,48,14.80
2007,07,12,05,49,14.80
2007,07,12,05,50,14.80
2007,07,12,05,51,14.80
2007,07,12,05,52,14.80
2007,07,12,05,53,14.80
2007,07,12,05,54,14.80
2007,07,12,05,55,14.80
2007,07,12,05,56,14.80
2007,07,12,05,57,14.80
2007,07,12,05,58,14.80
2007,07,12,05,59,14.80
2007,07,12,06,00,14.80
2007,07,12,06,01,14.90
2007,07,12,06,02,14.90
2007,07,12,06,03,14.90
2007,07,12,06,04,15.00
2007,07,12,06,05,15.00
2007,07,12,06,06,15.00
2007,07,12,06,07,15.10
2007,07,12,06,08,15.10
2007,07,12,06,09,15.20
2007,07,12,06,10,15.20
2007,07,12,06,11,15.30
2007,07,12,06,12,15.30
2007,07,12,06,13,15.30
2007,07,12,06,14,15.30
2007,07,12,06,15,15.30
2007,07,12,06,16,15.30
2007,07,12,06,17,15.40
2007,07,12,06,18,15.40
2007,07,12,06,19,15.40
2007,07,12,06,20,15.40
2007,07,12,06,21,15.40
2007,07,12,06,22,15.40
2007,07,12,06,23,15.40
2007,07,12,06,24,15.40
2007,07,12,06,25,15.40
2007,07,12,06,26,15.40
2007,07,12,06,27,15.40
2007,07,12,06,28,15.40
2007,07,12,06,29,15.40
2007,07,12,06,30,15.40
2007,07,12,06,31,15.40
2007,07,12,06,32,15.40
2007,07,12,06,33,15.40
2007,07,12,06,34,15.40
2007,07,12,06,35,15.50
2007,07,12,06,36,15.50
2007,07,12,06,37,15.50
2007,07,12,06,38,15.50
2007,07,12,06,39,15.50
2007,07,12,06,40,15.50
2007,07,12,06,41,15.50
2007,07,12,06,42,15.60
2007,07,12,06,43,15.60
2007,07,12,06,44,15.60
2007,07,12,06,45,15.60
2007,07,12,06,46,15.70
2007,07,12,06,47,15.70
2007,07,12,06,48,15.80
2007,07,12,06,49,15.80
2007,07,12,06,50,15.80
2007,07,12,06,51,15.80
2007,07,12,06,52,15.90
2007,07,12,06,53,16.00
2007,07,12,06,54,16.10
2007,07,12,06,55,16.20
2007,07,12,06,56,16.20
2007,07,12,06,57,16.30
2007,07,12,06,58,16.40
2007,07,12,06,59,16.40
2007,07,12,07,00,16.40
2007,07,12,07,01,16.40
2007,07,12,07,02,16.40
2007,07,12,07,03,16.40
2007,07,12,07,04,16.30
2007,07,12,07,05,16.20
2007,07,12,07,06,16.20
2007,07,12,07,07,16.10
2007,07,12,07,08,16.10
2007,07,12,07,09,16.10
2007,07,12,07,10,16.10
2007,07,12,07,11,16.00
2007,07,12,07,12,15.80
2007,07,12,07,13,15.70
2007,07,12,07,14,15.60
2007,07,12,07,15,15.50
2007,07,12,07,16,15.30
2007,07,12,07,17,15.20
2007,07,12,07,18,15.00
2007,07,12,07,19,15.00
2007,07,12,07,20,14.90
2007,07,12,07,21,14.80
2007,07,12,07,22,14.80
2007,07,12,07,23,14.80
2007,07,12,07,24,14.80
2007,07,12,07,25,14.80
2007,07,12,07,26,14.80
2007,07,12,07,27,14.80
2007,07,12,07,28,14.80
2007,07,12,07,29,14.80
2007,07,12,07,30,14.80
2007,07,12,07,31,14.90
2007,07,12,07,32,14.90
2007,07,12,07,33,14.80
2007,07,12,07,34,14.80
2007,07,12,07,35,14.90
2007,07,12,07,36,14.90
2007,07,12,07,37,14.90
2007,07,12,07,38,14.80
2007,07,12,07,39,14.80
2007,07,12,07,40,14.80
2007,07,12,07,41,14.80
2007,07,12,07,42,14.70
2007,07,12,07,43,14.70
2007,07,12,07,44,14.70
2007,07,12,07,45,14.70
2007,07,12,07,46,14.70
2007,07,12,07,47,14.80
2007,07,12,07,48,14.80
2007,07,12,07,49,14.90
2007,07,12,07,50,15.00
2007,07,12,07,51,15.10
2007,07,12,07,52,15.20
2007,07,12,07,53,15.30
2007,07,12,07,54,15.30
2007,07,12,07,55,15.40
2007,07,12,07,56,15.50
2007,07,12,07,57,15.50
2007,07,12,07,58,15.60
2007,07,12,07,59,15.70
2007,07,12,08,00,15.80
2007,07,12,08,01,15.80
2007,07,12,08,02,15.80
2007,07,12,08,03,15.90
2007,07,12,08,04,16.00
2007,07,12,08,05,16.10
2007,07,12,08,06,16.20
2007,07,12,08,07,16.30
2007,07,12,08,08,16.30
2007,07,12,08,09,16.40
2007,07,12,08,10,16.40
2007,07,12,08,11,16.40
2007,07,12,08,12,16.40
2007,07,12,08,13,16.60
2007,07,12,08,14,16.60
2007,07,12,08,15,16.70
2007,07,12,08,16,16.70
2007,07,12,08,17,16.70
2007,07,12,08,18,16.80
2007,07,12,08,19,16.90
2007,07,12,08,20,17.00
2007,07,12,08,21,17.00
2007,07,12,08,22,17.10
2007,07,12,08,23,17.20
2007,07,12,08,24,17.30
2007,07,12,08,25,17.50
2007,07,12,08,26,17.50
2007,07,12,08,27,17.60
2007,07,12,08,28,17.60
2007,07,12,08,29,17.70
2007,07,12,08,30,17.70
2007,07,12,08,31,17.70
2007,07,12,08,32,17.80
2007,07,12,08,33,17.80
2007,07,12,08,34,17.90
2007,07,12,08,35,17.90
2007,07,12,08,36,17.90
2007,07,12,08,37,17.90
2007,07,12,08,38,17.90
2007,07,12,08,39,17.70
2007,07,12,08,40,17.60
2007,07,12,08,41,17.60
2007,07,12,08,42,17.60
2007,07,12,08,43,17.60
2007,07,12,08,44,17.60
2007,07,12,08,45,17.70
2007,07,12,08,46,17.70
2007,07,12,08,47,17.80
2007,07,12,08,48,17.90
2007,07,12,08,49,18.00
2007,07,12,08,50,18.10
2007,07,12,08,51,18.10
2007,07,12,08,52,18.10
2007,07,12,08,53,18.10
2007,07,12,08,54,18.10
2007,07,12,08,55,18.00
2007,07,12,08,56,17.90
2007,07,12,08,57,17.90
2007,07,12,08,58,18.10
2007,07,12,08,59,18.10
2007,07,12,09,00,18.10
2007,07,12,09,01,18.10
2007,07,12,09,02,17.90
2007,07,12,09,03,17.90
2007,07,12,09,04,17.70
2007,07,12,09,05,17.70
2007,07,12,09,06,17.70
2007,07,12,09,07,17.70
2007,07,12,09,08,17.70
2007,07,12,09,09,17.70
2007,07,12,09,10,17.70
2007,07,12,09,11,17.60
2007,07,12,09,12,17.60
2007,07,12,09,13,17.40
2007,07,12,09,14,17.30
2007,07,12,09,15,17.00
2007,07,12,09,16,16.90
2007,07,12,09,17,16.80
2007,07,12,09,18,16.50
2007,07,12,09,19,16.40
2007,07,12,09,20,16.40
2007,07,12,09,21,16.20
2007,07,12,09,22,16.00
2007,07,12,09,23,15.80
2007,07,12,09,24,15.70
2007,07,12,09,25,15.40
2007,07,12,09,26,15.30
2007,07,12,09,27,15.20
2007,07,12,09,28,15.10
2007,07,12,09,29,15.00
2007,07,12,09,30,14.90
2007,07,12,09,31,14.90
2007,07,12,09,32,15.00
2007,07,12,09,33,15.10
2007,07,12,09,34,15.30
2007,07,12,09,35,15.30
2007,07,12,09,36,15.30
2007,07,12,09,37,15.30
2007,07,12,09,38,15.40
2007,07,12,09,39,15.50
2007,07,12,09,40,15.50
2007,07,12,09,41,15.50
2007,07,12,09,42,15.50
2007,07,12,09,43,15.60
2007,07,12,09,44,15.70
2007,07,12,09,45,15.80
2007,07,12,09,46,15.80
2007,07,12,09,47,15.80
2007,07,12,09,48,15.80
2007,07,12,09,49,15.80
2007,07,12,09,50,16.00
2007,07,12,09,51,16.30
2007,07,12,09,52,16.50
2007,07,12,09,53,16.70
2007,07,12,09,54,16.80
2007,07,12,09,55,16.90
2007,07,12,09,56,17.00
2007,07,12,09,57,17.10
2007,07,12,09,58,17.10
2007,07,12,09,59,17.20
2007,07,12,10,00,17.30
2007,07,12,10,01,17.30
2007,07,12,10,02,17.50
2007,07,12,10,03,17.60
2007,07,12,10,04,17.70
2007,07,12,10,05,17.70
2007,07,12,10,06,17.70
2007,07,12,10,07,17.90
2007,07,12,10,08,18.00
2007,07,12,10,09,18.20
2007,07,12,10,10,18.30
2007,07,12,10,11,18.50
2007,07,12,10,12,18.60
2007,07,12,10,13,18.70
2007,07,12,10,14,18.70
2007,07,12,10,15,18.80
2007,07,12,10,16,18.90
2007,07,12,10,17,19.10
2007,07,12,10,18,19.20
2007,07,12,10,19,19.40
2007,07,12,10,20,19.50
2007,07,12,10,21,19.60
2007,07,12,10,22,19.70
2007,07,12,10,23,19.90
2007,07,12,10,24,20.00
2007,07,12,10,25,20.10
2007,07,12,10,26,20.10
2007,07,12,10,27,20.10
2007,07,12,10,28,20.10
2007,07,12,10,29,20.10
2007,07,12,10,30,20.20
2007,07,12,10,31,20.20
2007,07,12,10,32,20.20
2007,07,12,10,33,20.30
2007,07,12,10,34,20.30
2007,07,12,10,35,20.40
2007,07,12,10,36,20.50
2007,07,12,10,37,20.50
2007,07,12,10,38,20.60
2007,07,12,10,39,20.70
2007,07,12,10,40,20.60
2007,07,12,10,41,20.50
2007,07,12,10,42,20.50
2007,07,12,10,43,20.60
2007,07,12,10,44,20.60
2007,07,12,10,45,20.60
2007,07,12,10,46,20.60
2007,07,12,10,47,20.70
2007,07,12,10,48,20.80
2007,07,12,10,49,20.80
2007,07,12,10,50,20.70
2007,07,12,10,51,20.60
2007,07,12,10,52,20.60
2007,07,12,10,53,20.70
2007,07,12,10,54,20.80
2007,07,12,10,55,20.80
2007,07,12,10,56,20.90
2007,07,12,10,57,21.00
2007,07,12,10,58,21.00
2007,07,12,10,59,21.10
2007,07,12,11,00,21.30
2007,07,12,11,01,21.40
2007,07,12,11,02,21.50
2007,07,12,11,03,21.60
2007,07,12,11,04,21.60
2007,07,12,11,05,21.70
2007,07,12,11,06,21.70
2007,07,12,11,07,21.80
2007,07,12,11,08,21.90
2007,07,12,11,09,22.00
2007,07,12,11,10,22.00
2007,07,12,11,11,22.00
2007,07,12,11,12,22.00
2007,07,12,11,13,21.90
2007,07,12,11,14,21.90
2007,07,12,11,15,21.70
2007,07,12,11,16,21.70
2007,07,12,11,17,21.40
2007,07,12,11,18,21.30
2007,07,12,11,19,21.30
2007,07,12,11,20,21.20
2007,07,12,11,21,21.20
2007,07,12,11,22,21.20
2007,07,12,11,23,21.20
2007,07,12,11,24,21.20
2007,07,12,11,25,21.30
2007,07,12,11,26,21.30
2007,07,12,11,27,21.30
2007,07,12,11,28,21.30
2007,07,12,11,29,21.30
2007,07,12,11,30,21.20
2007,07,12,11,31,21.20
2007,07,12,11,32,21.00
2007,07,12,11,33,20.90
2007,07,12,11,34,20.80
2007,07,12,11,35,20.80
2007,07,12,11,36,20.80
2007,07,12,11,37,20.80
2007,07,12,11,38,20.80
2007,07,12,11,39,20.70
2007,07,12,11,40,20.70
2007,07,12,11,41,20.80
2007,07,12,11,42,20.80
2007,07,12,11,43,20.80
2007,07,12,11,44,20.80
2007,07,12,11,45,20.80
2007,07,12,11,46,20.80
2007,07,12,11,47,20.80
2007,07,12,11,48,20.80
2007,07,12,11,49,20.80
2007,07,12,11,50,20.70
2007,07,12,11,51,20.60
2007,07,12,11,52,20.60
2007,07,12,11,53,20.60
2007,07,12,11,54,20.60
2007,07,12,11,55,20.60
2007,07,12,11,56,20.60
2007,07,12,11,57,20.70
2007,07,12,11,58,20.70
2007,07,12,11,59,20.70
2007,07,12,12,00,20.80
2007,07,12,12,01,20.90
2007,07,12,12,02,21.00
2007,07,12,12,03,21.20
2007,07,12,12,04,21.30
2007,07,12,12,05,21.40
2007,07,12,12,06,21.60
2007,07,12,12,07,21.70
2007,07,12,12,08,21.80
2007,07,12,12,09,22.00
2007,07,12,12,10,22.10
2007,07,12,12,11,22.10
2007,07,12,12,12,22.20
2007,07,12,12,13,22.20
2007,07,12,12,14,22.30
2007,07,12,12,15,22.40
2007,07,12,12,16,22.40
2007,07,12,12,17,22.40
2007,07,12,12,18,22.50
2007,07,12,12,19,22.40
2007,07,12,12,20,22.40
2007,07,12,12,21,22.40
2007,07,12,12,22,22.40
2007,07,12,12,23,22.40
2007,07,12,12,24,22.40
2007,07,12,12,25,22.40
2007,07,12,12,26,22.40
2007,07,12,12,27,22.30
2007,07,12,12,28,22.30
2007,07,12,12,29,22.30
2007,07,12,12,30,22.30
2007,07,12,12,31,22.30
2007,07,12,12,32,22.20
2007,07,12,12,33,22.20
2007,07,12,12,34,22.30
2007,07,12,12,35,22.40
2007,07,12,12,36,22.50
2007,07,12,12,37,22.60
2007,07,12,12,38,22.60
2007,07,12,12,39,22.70
2007,07,12,12,40,22.70
2007,07,12,12,41,22.70
2007,07,12,12,42,22.90
2007,07,12,12,43,22.90
2007,07,12,12,44,22.90
2007,07,12,12,45,23.10
2007,07,12,12,46,23.20
2007,07,12,12,47,23.30
2007,07,12,12,48,23.30
2007,07,12,12,49,23.30
2007,07,12,12,50,23.30
2007,07,12,12,51,23.30
2007,07,12,12,52,23.40
2007,07,12,12,53,23.40
2007,07,12,12,54,23.50
2007,07,12,12,55,23.70
2007,07,12,12,56,23.70
2007,07,12,12,57,23.70
2007,07,12,12,58,23.70
2007,07,12,12,59,23.70
2007,07,12,13,00,23.70
2007,07,12,13,01,23.80
2007,07,12,13,02,23.80
2007,07,12,13,03,23.90
2007,07,12,13,04,23.90
2007,07,12,13,05,23.90
2007,07,12,13,06,24.00
2007,07,12,13,07,24.10
2007,07,12,13,08,24.10
2007,07,12,13,09,24.00
2007,07,12,13,10,23.90
2007,07,12,13,11,23.80
2007,07,12,13,12,23.80
2007,07,12,13,13,23.60
2007,07,12,13,14,23.50
2007,07,12,13,15,23.30
2007,07,12,13,16,23.30
2007,07,12,13,17,23.20
2007,07,12,13,18,23.10
2007,07,12,13,19,22.90
2007,07,12,13,20,22.90
2007,07,12,13,21,22.80
2007,07,12,13,22,22.80
2007,07,12,13,23,22.70
2007,07,12,13,24,22.70
2007,07,12,13,25,22.70
2007,07,12,13,26,22.80
2007,07,12,13,27,22.80
2007,07,12,13,28,22.80
2007,07,12,13,29,22.80
2007,07,12,13,30,22.80
2007,07,12,13,31,22.80
2007,07,12,13,32,22.70
2007,07,12,13,33,22.70
2007,07,12,13,34,22.60
2007,07,12,13,35,22.40
2007,07,12,13,36,22.10
2007,07,12,13,37,22.00
2007,07,12,13,38,21.60
2007,07,12,13,39,21.60
2007,07,12,13,40,21.40
2007,07,12,13,41,21.30
2007,07,12,13,42,21.30
2007,07,12,13,43,21.30
2007,07,12,13,44,21.30
2007,07,12,13,45,21.40
2007,07,12,13,46,21.50
2007,07,12,13,47,21.70
2007,07,12,13,48,21.90
2007,07,12,13,49,22.00
2007,07,12,13,50,22.20
2007,07,12,13,51,22.30
2007,07,12,13,52,22.40
2007,07,12,13,53,22.60
2007,07,12,13,54,22.70
2007,07,12,13,55,22.80
2007,07,12,13,56,23.00
2007,07,12,13,57,23.30
2007,07,12,13,58,23.30
2007,07,12,13,59,23.50
2007,07,12,14,00,23.70
2007,07,12,14,01,23.70
2007,07,12,14,02,23.70
2007,07,12,14,03,23.70
2007,07,12,14,04,23.70
2007,07,12,14,05,23.70
2007,07,12,14,06,23.70
2007,07,12,14,07,23.70
2007,07,12,14,08,23.70
2007,07,12,14,09,23.60
2007,07,12,14,10,23.40
2007,07,12,14,11,23.30
2007,07,12,14,12,23.30
2007,07,12,14,13,23.20
2007,07,12,14,14,23.20
2007,07,12,14,15,23.20
2007,07,12,14,16,23.20
2007,07,12,14,17,23.30
2007,07,12,14,18,23.30
2007,07,12,14,19,23.30
2007,07,12,14,20,23.30
2007,07,12,14,21,23.30
2007,07,12,14,22,23.30
2007,07,12,14,23,23.20
2007,07,12,14,24,23.10
2007,07,12,14,25,23.10
2007,07,12,14,26,23.10
2007,07,12,14,27,23.10
2007,07,12,14,28,23.20
2007,07,12,14,29,23.20
2007,07,12,14,30,23.30
2007,07,12,14,31,23.30
2007,07,12,14,32,23.30
2007,07,12,14,33,23.30
2007,07,12,14,34,23.30
2007,07,12,14,35,23.30
2007,07,12,14,36,23.30
2007,07,12,14,37,23.30
2007,07,12,14,38,23.30
2007,07,12,14,39,23.20
2007,07,12,14,40,23.10
2007,07,12,14,41,23.00
2007,07,12,14,42,22.90
2007,07,12,14,43,22.90
2007,07,12,14,44,22.90
2007,07,12,14,45,22.90
2007,07,12,14,46,22.90
2007,07,12,14,47,22.80
2007,07,12,14,48,22.60
2007,07,12,14,49,22.50
2007,07,12,14,50,22.40
2007,07,12,14,51,22.40
2007,07,12,14,52,22.50
2007,07,12,14,53,22.50
2007,07,12,14,54,22.50
2007,07,12,14,55,22.60
2007,07,12,14,56,22.60
2007,07,12,14,57,22.70
2007,07,12,14,58,22.80
2007,07,12,14,59,22.90
2007,07,12,15,00,22.90
2007,07,12,15,01,23.00
2007,07,12,15,02,23.10
2007,07,12,15,03,23.00
2007,07,12,15,04,22.90
2007,07,12,15,05,22.90
2007,07,12,15,06,22.90
2007,07,12,15,07,23.00
2007,07,12,15,08,23.10
2007,07,12,15,09,23.10
2007,07,12,15,10,23.20
2007,07,12,15,11,23.30
2007,07,12,15,12,23.40
2007,07,12,15,13,23.60
2007,07,12,15,14,23.70
2007,07,12,15,15,23.80
2007,07,12,15,16,24.00
2007,07,12,15,17,24.10
2007,07,12,15,18,24.10
2007,07,12,15,19,24.10
2007,07,12,15,20,24.20
2007,07,12,15,21,24.20
2007,07,12,15,22,24.30
2007,07,12,15,23,24.40
2007,07,12,15,24,24.50
2007,07,12,15,25,24.60
2007,07,12,15,26,24.60
2007,07,12,15,27,24.70
2007,07,12,15,28,24.70
2007,07,12,15,29,24.70
2007,07,12,15,30,24.80
2007,07,12,15,31,24.80
2007,07,12,15,32,24.80
2007,07,12,15,33,24.80
2007,07,12,15,34,24.90
2007,07,12,15,35,24.90
2007,07,12,15,36,24.90
2007,07,12,15,37,24.80
2007,07,12,15,38,24.80
2007,07,12,15,39,24.90
2007,07,12,15,40,25.00
2007,07,12,15,41,25.20
2007,07,12,15,42,25.30
2007,07,12,15,43,25.30
2007,07,12,15,44,25.40
2007,07,12,15,45,25.50
2007,07,12,15,46,25.50
2007,07,12,15,47,25.80
2007,07,12,15,48,25.80
2007,07,12,15,49,25.90
2007,07,12,15,50,25.90
2007,07,12,15,51,25.90
2007,07,12,15,52,25.90
2007,07,12,15,53,25.80
2007,07,12,15,54,25.80
2007,07,12,15,55,25.80
2007,07,12,15,56,25.70
2007,07,12,15,57,25.60
2007,07,12,15,58,25.50
2007,07,12,15,59,25.50
2007,07,12,16,00,25.50
2007,07,12,16,01,25.50
2007,07,12,16,02,25.50
2007,07,12,16,03,25.40
2007,07,12,16,04,25.40
2007,07,12,16,05,25.30
2007,07,12,16,06,25.20
2007,07,12,16,07,25.20
2007,07,12,16,08,25.30
2007,07,12,16,09,25.30
2007,07,12,16,10,25.30
2007,07,12,16,11,25.40
2007,07,12,16,12,25.40
2007,07,12,16,13,25.40
2007,07,12,16,14,25.40
2007,07,12,16,15,25.30
2007,07,12,16,16,25.30
2007,07,12,16,17,25.30
2007,07,12,16,18,25.30
2007,07,12,16,19,25.20
2007,07,12,16,20,25.20
2007,07,12,16,21,25.10
2007,07,12,16,22,25.00
2007,07,12,16,23,25.00
2007,07,12,16,24,24.90
2007,07,12,16,25,24.90
2007,07,12,16,26,25.00
2007,07,12,16,27,24.90
2007,07,12,16,28,24.90
2007,07,12,16,29,25.00
2007,07,12,16,30,25.00
2007,07,12,16,31,25.20
2007,07,12,16,32,25.30
2007,07,12,16,33,25.30
2007,07,12,16,34,25.30
2007,07,12,16,35,25.30
2007,07,12,16,36,25.40
2007,07,12,16,37,25.50
2007,07,12,16,38,25.60
2007,07,12,16,39,25.70
2007,07,12,16,40,25.80
2007,07,12,16,41,25.90
2007,07,12,16,42,25.90
2007,07,12,16,43,26.00
2007,07,12,16,44,26.00
2007,07,12,16,45,26.10
2007,07,12,16,46,26.10
2007,07,12,16,47,26.00
2007,07,12,16,48,25.90
2007,07,12,16,49,25.90
2007,07,12,16,50,25.90
2007,07,12,16,51,25.90
2007,07,12,16,52,25.90
2007,07,12,16,53,25.90
2007,07,12,16,54,26.00
2007,07,12,16,55,26.00
2007,07,12,16,56,26.00
2007,07,12,16,57,26.00
2007,07,12,16,58,26.00
2007,07,12,16,59,26.00
2007,07,12,17,00,26.10
2007,07,12,17,01,26.10
2007,07,12,17,02,26.10
2007,07,12,17,03,26.10
2007,07,12,17,04,26.10
2007,07,12,17,05,26.10
2007,07,12,17,06,26.20
2007,07,12,17,07,26.20
2007,07,12,17,08,26.20
2007,07,12,17,09,26.30
2007,07,12,17,10,26.30
2007,07,12,17,11,26.40
2007,07,12,17,12,26.40
2007,07,12,17,13,26.40
2007,07,12,17,14,26.60
2007,07,12,17,15,26.60
2007,07,12,17,16,26.60
2007,07,12,17,17,26.60
2007,07,12,17,18,26.60
2007,07,12,17,19,26.50